Regional Weather Roundup
Issued by NWS Memphis, TN

Current Version | Previous Version | Text Only | Print | Product List | Glossary On
Versions: 1 2 3 4 5 6 7 8 9 10 11 12 13 14 15 16 17 18 19 20 21 22 23 24 25 26 27 28 29 30 31 32 33 34 35 36 37 38 39 40 41 42 43 44 45 46 47 48 49 50
000
ASUS44 KMEG 180610
RWRMEG
MEMPHIS CWA HOURLY WEATHER ROUNDUP
NATIONAL WEATHER SERVICE MEMPHIS TN
100 AM CDT FRI APR 18 2014

...WEST TENNESSEE...

CITY           SKY/WX    TMP DP  RH WIND       PRES   REMARKS
MEMPHIS INTL   CLOUDY    57  44  62 CALM      30.22R
6HR MIN TEMP:  56; 6HR MAX TEMP:  68;

NWS MEMPHIS      N/A     53 N/A N/A MISG        N/A
JACKSON        CLOUDY    50  44  80 CALM      30.24R
6HR MIN TEMP:  50; 6HR MAX TEMP:  66;

LEXINGTON      CLOUDY    52  45  76 CALM      30.24R
SAVANNAH       CLOUDY    59  44  57 CALM      30.25R
DYERSBURG      FAIR      54  39  58 CALM      30.25R
6HR MIN TEMP:  52; 6HR MAX TEMP:  66;

UNION CITY     CLEAR     46  45  93 CALM      30.23R
PARIS          FAIR      48  37  65 SE3       30.24S


...EASTERN ARKANSAS...

CITY           SKY/WX    TMP DP  RH WIND       PRES   REMARKS
JONESBORO      MOCLDY    55  43  63 NE3       30.22S
6HR MIN TEMP:  52; 6HR MAX TEMP:  66;

WEST MEMPHIS   CLOUDY    57  48  72 CALM      30.22R HAZE
6HR MIN TEMP:  54; 6HR MAX TEMP:  66;

BATESVILLE     FAIR      54  43  66 CALM      30.21F
6HR MIN TEMP:  52; 6HR MAX TEMP:  66;

NEWPORT        FAIR      55  49  80 CALM      30.23S
6HR MIN TEMP:  54; 6HR MAX TEMP:  66;

WALNUT RIDGE   FAIR      55  48  76 CALM      30.22S
6HR MIN TEMP:  55; 6HR MAX TEMP:  64;

BLYTHEVILLE    CLOUDY    52  49  89 NE3       30.23R
6HR MIN TEMP:  50; 6HR MAX TEMP:  66;

SEARCY         FAIR      49  46  89 CALM      30.22F
6HR MIN TEMP:  49; 6HR MAX TEMP:  67; 6HR PCP: TRACE;

STUTTGART      FAIR      55  48  76 NE6       30.22R
6HR MIN TEMP:  54; 6HR MAX TEMP:  66;

PINE BLUFF     CLOUDY    53  49  86 CALM      30.21S
6HR MIN TEMP:  53; 6HR MAX TEMP:  64;

MONTICELLO     CLOUDY    55  51  86 CALM      30.20S
6HR MIN TEMP:  54; 6HR MAX TEMP:  65; 6HR PCP: TRACE;



...NORTH MISSISSIPPI...

CITY           SKY/WX    TMP DP  RH WIND       PRES   REMARKS
TUPELO         CLOUDY    60  51  72 SE6       30.23S
6HR MIN TEMP:  57; 6HR MAX TEMP:  66;

OXFORD         MOCLDY    54  48  82 CALM      30.24S
OLIVE BRANCH   CLOUDY    54  46  76 CALM      30.23R
TUNICA         FAIR      55  50  82 CALM      30.23R
CLARKSDALE       N/A     59  50  72 E5        30.23S
CORINTH        CLOUDY    57  48  72 CALM      30.24R
GRENADA        FAIR      55  52  88 CALM      30.23S
GREENWOOD      CLOUDY    59  50  72 SE5       30.22S
6HR MIN TEMP:  55; 6HR MAX TEMP:  65;

COLUMBUS       CLOUDY    60  52  75 SE6       30.24F
6HR MIN TEMP:  57; 6HR MAX TEMP:  65; 6HR PCP: TRACE;

STARKVILLE     MOCLDY    55  54  94 E3        30.23S
GOLDEN TRIANGL CLOUDY    59  50  72 E6        30.25F
6HR MIN TEMP:  57; 6HR MAX TEMP:  63;



...SOUTHEAST MISSOURI...

CITY           SKY/WX    TMP DP  RH WIND       PRES   REMARKS
DONIPHAN         N/A     46  43  90 CALM        N/A
WEST PLAINS    FAIR      52  37  56 N5        30.24R
6HR MIN TEMP:  52; 6HR MAX TEMP:  63;

POPLAR BLUFF   FAIR      50  44  80 N3        30.22S
6HR MIN TEMP:  50; 6HR MAX TEMP:  64;

CAPE GIRARDEAU FAIR      47  43  86 E3        30.24R
6HR MIN TEMP:  47; 6HR MAX TEMP:  62;



...NORTHWEST ALABAMA...

CITY           SKY/WX    TMP DP  RH WIND       PRES   REMARKS
MUSCLE SHOALS  CLOUDY    60  47  61 SE6       30.28R
6HR MIN TEMP:  58; 6HR MAX TEMP:  64;



...MIDDLE TENNESSEE...

CITY           SKY/WX    TMP DP  RH WIND       PRES   REMARKS
NASHVILLE      CLOUDY    53  44  71 S3        30.28R
6HR MIN TEMP:  51; 6HR MAX TEMP:  64;

CLARKSVILLE    FAIR      50  42  74 SE3       30.25S
6HR MIN TEMP:  50; 6HR MAX TEMP:  63;

DICKSON        CLOUDY    52  39  62 CALM      30.25S
COLUMBIA       CLOUDY    55  48  76 CALM      30.26R
LEWISBURG      CLOUDY    49  45  86 CALM      30.28R


...WESTERN KENTUCKY...

CITY           SKY/WX    TMP DP  RH WIND       PRES   REMARKS
PADUCAH        FAIR      48  42  80 W3        30.23R
6HR MIN TEMP:  48; 6HR MAX TEMP:  66;

FORT CAMPBELL  FAIR      54  37  54 SE6       30.24S


...CENTRAL ARKANSAS...

CITY           SKY/WX    TMP DP  RH WIND       PRES   REMARKS
LITTLE ROCK    CLOUDY    55  48  77 CALM      30.21F
6HR MIN TEMP:  54; 6HR MAX TEMP:  65;



SKY/WX REPORTED AS FAIR MEANS FEW OR NO CLOUDS BELOW
12 THOUSAND FEET.




USA.gov is the U.S. government's official web portal to all federal, state and local government web resources and services.